Tracking 29892 objects as of 21-Nov-2024
HD Live streaming from Space Station
objects crossing your sky now

SL-16 DEB

Track SL-16 DEB now!
10-day predictions


NORAD ID: 22337
Int'l Code: 1992-093AA
Perigee: 847.4 km
Apogee: 1,063.2 km
Inclination: 71.3 °
Period: 104.0 minutes
Semi major axis: 7326 km
RCS: 0.6915 m2 (medium)
Launch date: December 25, 1992
Source: Commonwealth of Independent States (former USSR) (CIS)
Launch site: TYURATAM MISSILE AND SPACE COMPLEX (TTMTR)

Note: This is SATELLITE DEBRIS
Your satellite tracking list
Your tracking list is empty




NASA's NSSDC Master Catalog

Two Line Element Set (TLE):
1 22337U 92093AA  24325.53571411  .00000086  00000-0  10486-3 0  9999
2 22337  71.2911   7.1934 0147294  28.1319 332.7648 13.84446421610248
Source of the keplerian elements: AFSPC